Lancaster, SC

12:30 PM EDT on September 22, 2017 (GMT -0400)
Lancaster County-McWhirter

Weather History for KLKR - February, 2013

Change the Weather History Date:

Tuesday, February 26, 2013

  Actual Average (KUZA) Record (KUZA)
Temperature  
Mean Temperature 42 °F -  
Max Temperature 50 °F 56 °F 81 °F (1977)
Min Temperature 35 °F 34 °F 11 °F (1967)
Degree Days  
Heating Degree Days 22    
Moisture  
Dew Point 41 °F    
Average Humidity 97    
Maximum Humidity 100    
Minimum Humidity 61    
Precipitation  
Precipitation 0.64 in - - ()
Sea Level Pressure  
Sea Level Pressure 29.77 in    
Wind  
Wind Speed 5 mph (NE)    
Max Wind Speed 12 mph    
Max Gust Speed 22 mph    
Visibility 6 miles    
Events Rain    
Averages and records for this station are not official NWS values.
T = Trace of Precipitation, MM = Missing Value Source: NWS Daily Summary

Daily Weather History Graph

Daily Weather History Graph

Search for Another Location

Airport or City:

Trip Planner

Search our weather history database for the weather conditions in past years. The results will help you decide how hot, cold, wet, or windy it might be!

Date:

Astronomy

Feb. 26, 2013 Rise Set
Actual Time 6:56 AM EST 6:16 PM EST
Civil Twilight 6:30 AM EST 6:42 PM EST
Nautical Twilight 6:01 AM EST 7:11 PM EST
Astronomical Twilight 5:32 AM EST 7:40 PM EST
Moon 7:26 PM EST (2/26) 7:01 AM EST (2/26)
Length of Visible Light 12h 11m
Length of Day
11h 20m
Full, 99% of the Moon is Illuminated
Feb 26
Full
Mar 4
Last Quarter
Mar 11
New
Mar 19
First Quarter
Mar 27
Full

Hourly Weather History & Observations

Time (EST) Temp. Windchill Dew Point Humidity Pressure Visibility Wind Dir Wind Speed Gust Speed Precip Events Conditions
12:15 AM 39.2 °F 35.9 °F 26.6 °F 61% 30.05 in 10.0 mi ENE 4.6 mph - N/A   Overcast
12:35 AM 39.2 °F 37.0 °F 26.6 °F 61% 30.05 in 10.0 mi ENE 3.5 mph - N/A   Overcast
12:55 AM 37.4 °F 32.8 °F 30.2 °F 75% 30.04 in 8.0 mi NE 5.8 mph - N/A   Overcast
1:15 AM 37.4 °F 32.8 °F 28.4 °F 70% 30.04 in 10.0 mi NE 5.8 mph - N/A   Overcast
1:35 AM 37.4 °F 34.9 °F 28.4 °F 70% 30.04 in 10.0 mi NE 3.5 mph - N/A   Overcast
1:55 AM 39.2 °F 34.2 °F 28.4 °F 65% 30.03 in 10.0 mi NE 6.9 mph - N/A   Overcast
2:15 AM 37.4 °F - 32.0 °F 81% 30.02 in 7.0 mi Calm Calm - N/A   Overcast
2:35 AM 35.6 °F 32.8 °F 33.8 °F 93% 29.99 in 4.0 mi ENE 3.5 mph - N/A Rain Light Rain
3:15 AM 35.6 °F 29.9 °F 35.6 °F 100% 29.96 in 3.0 mi NE 6.9 mph - N/A Rain Light Rain
3:35 AM 35.6 °F 31.7 °F 35.6 °F 100% 29.95 in - ENE 4.6 mph - N/A Rain Light Rain
3:55 AM 35.6 °F 29.9 °F 35.6 °F 100% 29.93 in - NE 6.9 mph - 0.02 in Rain Light Rain
4:15 AM 35.6 °F 31.7 °F 35.6 °F 100% 29.93 in - NE 4.6 mph - 0.02 in Rain Light Rain
4:35 AM 35.6 °F 28.6 °F 35.6 °F 100% 29.92 in - NE 9.2 mph - 0.04 in Rain Light Rain
4:55 AM 35.6 °F 31.7 °F 35.6 °F 100% 29.92 in - ENE 4.6 mph - 0.06 in Rain Light Rain
5:15 AM 35.6 °F 29.9 °F 35.6 °F 100% 29.93 in - NNE 6.9 mph - 0.01 in Rain Light Rain
5:35 AM 35.6 °F 29.2 °F 35.6 °F 100% 29.94 in - NNE 8.1 mph - 0.04 in Rain Light Rain
5:55 AM 35.6 °F 29.9 °F 35.6 °F 100% 29.94 in - NE 6.9 mph - 0.08 in Rain Light Rain
6:15 AM 35.6 °F 28.6 °F 35.6 °F 100% 29.91 in - NE 9.2 mph - 0.04 in Rain Light Rain
6:35 AM 35.6 °F 28.6 °F 35.6 °F 100% 29.88 in - NE 9.2 mph 16.1 mph 0.06 in Rain Light Rain
6:55 AM 35.6 °F 28.0 °F 35.6 °F 100% 29.89 in - NNE 10.4 mph 16.1 mph 0.08 in Rain Light Rain
7:15 AM 35.6 °F 27.5 °F 35.6 °F 100% 29.87 in - NE 11.5 mph 19.6 mph 0.01 in Rain Light Rain
7:35 AM 35.6 °F 30.7 °F 35.6 °F 100% 29.87 in - NE 5.8 mph 16.1 mph 0.04 in Rain Light Rain
8:15 AM 35.6 °F 28.0 °F 35.6 °F 100% 29.82 in - NE 10.4 mph 21.9 mph 0.04 in Rain Light Rain
8:35 AM 37.4 °F 32.8 °F 37.4 °F 100% 29.85 in 1.8 mi NE 5.8 mph 16.1 mph 0.12 in Rain Rain
8:55 AM 37.4 °F - 37.4 °F 100% 29.84 in 2.0 mi Calm Calm - 0.23 in Rain Rain
9:15 AM 37.4 °F 34.9 °F 37.4 °F 100% 29.83 in 5.0 mi ENE 3.5 mph - 0.01 in Rain Light Rain
9:35 AM 37.4 °F 34.9 °F 37.4 °F 100% 29.83 in 2.5 mi NE 3.5 mph - 0.06 in Rain Light Rain
9:55 AM 37.4 °F - 37.4 °F 100% 29.83 in 3.0 mi Calm Calm - 0.11 in Rain Light Rain
10:15 AM 37.4 °F - 37.4 °F 100% 29.79 in 6.0 mi Calm Calm - N/A Rain Light Rain
10:35 AM 39.2 °F - 39.2 °F 100% 29.77 in 3.0 mi Calm Calm - N/A Rain Light Rain
10:55 AM 39.2 °F 35.9 °F 39.2 °F 100% 29.76 in 10.0 mi NE 4.6 mph - N/A   Scattered Clouds
11:15 AM 39.2 °F 37.0 °F 39.2 °F 100% 29.73 in 5.0 mi ENE 3.5 mph - 0.01 in Rain Light Rain
11:35 AM 41.0 °F 39.0 °F 41.0 °F 100% 29.71 in 8.0 mi ENE 3.5 mph - 0.01 in   Overcast
11:55 AM 41.0 °F 38.0 °F 41.0 °F 100% 29.69 in 5.0 mi ENE 4.6 mph - 0.01 in   Mostly Cloudy
12:15 PM 42.8 °F - 42.8 °F 100% 29.67 in 7.0 mi Calm Calm - N/A   Mostly Cloudy
12:35 PM 42.8 °F 41.1 °F 42.8 °F 100% 29.64 in 9.0 mi ENE 3.5 mph - N/A   Overcast
12:55 PM 44.6 °F 42.2 °F 44.6 °F 100% 29.62 in 3.0 mi East 4.6 mph - N/A   Overcast
1:15 PM 46.4 °F 44.3 °F 46.4 °F 100% 29.60 in 4.0 mi East 4.6 mph - 0.01 in   Overcast
1:35 PM 48.2 °F - 48.2 °F 100% 29.59 in 6.0 mi ENE 3.5 mph - 0.01 in   Overcast
1:55 PM 48.2 °F - 48.2 °F 100% 29.60 in 2.5 mi Calm Calm - 0.01 in Rain Light Rain
2:15 PM 48.2 °F - 48.2 °F 100% 29.61 in 2.0 mi WSW 4.6 mph - N/A   Overcast
2:35 PM 48.2 °F - 48.2 °F 100% 29.60 in 3.0 mi Calm Calm - N/A Rain Light Rain
2:55 PM 50.0 °F - 50.0 °F 100% 29.57 in 5.0 mi Calm Calm - N/A   Overcast
3:15 PM 50.0 °F - 50.0 °F 100% 29.57 in 5.0 mi Calm Calm - N/A   Overcast
3:35 PM 50.0 °F - 50.0 °F 100% 29.57 in 2.5 mi Calm Calm - N/A   Overcast
3:55 PM 50.0 °F - 50.0 °F 100% 29.59 in 1.0 mi West 3.5 mph - N/A   Overcast
4:15 PM 50.0 °F - 50.0 °F 100% 29.59 in 1.0 mi West 4.6 mph - N/A   Overcast
4:35 PM 50.0 °F - 50.0 °F 100% 29.60 in 1.0 mi West 6.9 mph - N/A   Overcast
5:15 PM 48.2 °F - 48.2 °F 100% 29.60 in 1.5 mi West 4.6 mph - N/A   Overcast
5:35 PM 48.2 °F - 48.2 °F 100% 29.60 in 3.0 mi West 4.6 mph - N/A   Overcast
6:15 PM 46.4 °F - 46.4 °F 100% 29.61 in 7.0 mi Calm Calm - N/A   Overcast
6:35 PM 46.4 °F - 46.4 °F 100% 29.62 in 7.0 mi Calm Calm - N/A   Overcast
7:15 PM 46.4 °F 45.2 °F 46.4 °F 100% 29.64 in 10.0 mi WSW 3.5 mph - N/A   Overcast
7:35 PM 46.4 °F 42.9 °F 46.4 °F 100% 29.65 in 10.0 mi SW 6.9 mph - N/A   Overcast
7:55 PM 44.6 °F - 44.6 °F 100% 29.66 in 10.0 mi Calm Calm - N/A   Scattered Clouds
8:15 PM 44.6 °F - 44.6 °F 100% 29.66 in 6.0 mi Calm Calm - N/A   Partly Cloudy
8:35 PM 44.6 °F - 44.6 °F 100% 29.68 in 3.0 mi Calm Calm - N/A   Mostly Cloudy
8:55 PM 44.6 °F - 44.6 °F 100% 29.68 in 5.0 mi Calm Calm - N/A   Overcast
9:15 PM 44.6 °F - 44.6 °F 100% 29.68 in 6.0 mi Calm Calm - N/A   Overcast
9:35 PM 44.6 °F 41.4 °F 44.6 °F 100% 29.68 in 5.0 mi West 5.8 mph - N/A   Overcast
9:55 PM 44.6 °F 41.4 °F 44.6 °F 100% 29.69 in 8.0 mi West 5.8 mph - N/A   Overcast
10:15 PM 44.6 °F 42.2 °F 44.6 °F 100% 29.68 in 7.0 mi SW 4.6 mph - N/A   Overcast
10:35 PM 42.8 °F 39.3 °F 42.8 °F 100% 29.70 in 10.0 mi SW 5.8 mph - N/A   Overcast
10:55 PM 42.8 °F 39.3 °F 42.8 °F 100% 29.70 in 10.0 mi SW 5.8 mph - N/A   Overcast
11:15 PM 42.8 °F 40.1 °F 42.8 °F 100% 29.70 in 10.0 mi SW 4.6 mph - N/A   Overcast
11:35 PM 42.8 °F 38.6 °F 42.8 °F 100% 29.70 in 10.0 mi WSW 6.9 mph - N/A   Overcast
11:55 PM 42.8 °F 38.0 °F 42.8 °F 100% 29.70 in 10.0 mi SW 8.1 mph - N/A   Overcast